EN

Hourly Weather Abyek

Today, 24 November, Tuesday

Time Temperature Precipitation Wind Pressure Humidity
00:00 +3°C° 0 mm 3 mps 649 mmHg 68%
01:00 +3°C° 0 mm 3 mps 649 mmHg 69%
02:00 +2°C° 0 mm 3 mps 648 mmHg 71%
03:00 +2°C° 0 mm 3 mps 648 mmHg 72%
04:00 +2°C° 0 mm 3 mps 648 mmHg 73%
05:00 +2°C° 0 mm 2 mps 648 mmHg 74%
06:00 +2°C° 0 mm 2 mps 648 mmHg 75%
07:00 +3°C° 0 mm 2 mps 649 mmHg 72%
08:00 +4°C° 0 mm 2 mps 649 mmHg 69%
09:00 +4°C° 0 mm 2 mps 649 mmHg 66%
10:00 +5°C° 0 mm 2 mps 649 mmHg 63%
11:00 +6°C° 0 mm 2 mps 649 mmHg 60%
12:00 +8°C° 0 mm 1 mps 648 mmHg 56%
13:00 +8°C° 0 mm 1 mps 648 mmHg 56%
14:00 +8°C° 0 mm 1 mps 648 mmHg 56%
15:00 +8°C° 0 mm 1 mps 648 mmHg 56%
16:00 +8°C° 0 mm 1 mps 648 mmHg 60%
17:00 +7°C° 0 mm 1 mps 648 mmHg 65%
18:00 +7°C° 0 mm 1 mps 648 mmHg 69%
19:00 +7°C° 0 mm 1 mps 647 mmHg 70%
20:00 +6°C° 0 mm 1 mps 647 mmHg 71%
21:00 +5°C° 0 mm 2 mps 647 mmHg 72%
22:00 +5°C° 0 mm 2 mps 647 mmHg 74%
23:00 +5°C° 0 mm 2 mps 647 mmHg 75%

Tomorrow, 25 November, Wednesday

Time Temperature Precipitation Wind Pressure Humidity
00:00 +5°C° 0 mm 2 mps 646 mmHg 77%
01:00 +4°C° 0 mm 2 mps 646 mmHg 78%
02:00 +4°C° 0 mm 2 mps 646 mmHg 78%
03:00 +4°C° 0 mm 2 mps 645 mmHg 79%
04:00 +4°C° 0 mm 2 mps 645 mmHg 78%
05:00 +4°C° 0 mm 2 mps 645 mmHg 78%
06:00 +4°C° 0 mm 2 mps 645 mmHg 77%
07:00 +4°C° 0 mm 3 mps 646 mmHg 74%
08:00 +5°C° 0 mm 3 mps 646 mmHg 70%
09:00 +6°C° 0 mm 4 mps 646 mmHg 67%
10:00 +7°C° 0 mm 4 mps 646 mmHg 63%
11:00 +8°C° 0 mm 4 mps 646 mmHg 60%
12:00 +8°C° 0 mm 4 mps 646 mmHg 56%
13:00 +10°C° 0 mm 4 mps 645 mmHg 56%
14:00 +10°C° 0 mm 4 mps 645 mmHg 56%
15:00 +10°C° 0 mm 4 mps 645 mmHg 56%
16:00 +9°C° 0 mm 3 mps 645 mmHg 59%
17:00 +9°C° 0 mm 3 mps 645 mmHg 62%
18:00 +8°C° 0 mm 3 mps 645 mmHg 64%
19:00 +8°C° 0 mm 3 mps 645 mmHg 65%
20:00 +8°C° 0 mm 3 mps 645 mmHg 65%
21:00 +8°C° 0 mm 3 mps 645 mmHg 65%
22:00 +6°C° 0 mm 4 mps 645 mmHg 67%
23:00 +6°C° 0 mm 4 mps 645 mmHg 68%

Day after tomorrow, 26 November, Thursday

Time Temperature Precipitation Wind Pressure Humidity
00:00 +6°C° 0 mm 4 mps 645 mmHg 69%
01:00 +7°C° 0 mm 3 mps 645 mmHg 69%
02:00 +7°C° 0 mm 3 mps 645 mmHg 68%
03:00 +7°C° 0 mm 3 mps 645 mmHg 68%
04:00 +7°C° 0 mm 3 mps 645 mmHg 68%
05:00 +7°C° 0 mm 3 mps 645 mmHg 68%
06:00 +7°C° 0 mm 3 mps 645 mmHg 68%
07:00 +7°C° 0.1 mm 3 mps 645 mmHg 66%
08:00 +8°C° 0.1 mm 3 mps 646 mmHg 64%
09:00 +9°C° 0.1 mm 3 mps 646 mmHg 62%
10:00 +7°C° 1.5 mm 4 mps 645 mmHg 70%
11:00 +6°C° 1.5 mm 4 mps 645 mmHg 78%
12:00 +5°C° 1.5 mm 5 mps 644 mmHg 86%
13:00 +5°C° 1 mm 4 mps 644 mmHg 83%
14:00 +7°C° 1 mm 3 mps 644 mmHg 80%
15:00 +7°C° 1 mm 2 mps 644 mmHg 77%
16:00 +7°C° 1.2 mm 2 mps 644 mmHg 81%
17:00 +6°C° 1.2 mm 2 mps 644 mmHg 84%
18:00 +7°C° 1.2 mm 1 mps 644 mmHg 88%
19:00 +6°C° 2.4 mm 2 mps 644 mmHg 89%
20:00 +4°C° 2.4 mm 3 mps 644 mmHg 90%
21:00 +4°C° 2.4 mm 3 mps 645 mmHg 92%
22:00 +5°C° 0.1 mm 3 mps 645 mmHg 90%
23:00 +5°C° 0.1 mm 3 mps 645 mmHg 89%

27 November, Friday

Time Temperature Precipitation Wind Pressure Humidity
00:00 +5°C° 0.1 mm 4 mps 646 mmHg 87%
01:00 +5°C° 0.3 mm 3 mps 646 mmHg 88%
02:00 +6°C° 0.3 mm 2 mps 646 mmHg 88%
03:00 +7°C° 0.3 mm 1 mps 646 mmHg 88%
04:00 +7°C° 0.1 mm 1 mps 647 mmHg 89%
05:00 +5°C° 0.1 mm 2 mps 647 mmHg 89%
06:00 +5°C° 0.1 mm 2 mps 647 mmHg 89%
07:00 +6°C° 0.1 mm 2 mps 648 mmHg 87%
08:00 +6°C° 0.1 mm 2 mps 649 mmHg 84%
09:00 +6°C° 0.1 mm 2 mps 649 mmHg 81%
10:00 +7°C° 0 mm 2 mps 649 mmHg 79%
11:00 +8°C° 0 mm 2 mps 650 mmHg 77%
12:00 +8°C° 0 mm 2 mps 650 mmHg 74%
13:00 +8°C° 0.1 mm 2 mps 650 mmHg 74%
14:00 +8°C° 0.1 mm 2 mps 650 mmHg 73%
15:00 +9°C° 0.1 mm 2 mps 651 mmHg 73%
16:00 +8°C° 0 mm 2 mps 651 mmHg 74%
17:00 +7°C° 0 mm 2 mps 651 mmHg 76%
18:00 +6°C° 0 mm 2 mps 651 mmHg 78%
19:00 +6°C° 0 mm 2 mps 651 mmHg 78%
20:00 +6°C° 0 mm 2 mps 651 mmHg 78%
21:00 +5°C° 0 mm 2 mps 651 mmHg 77%
22:00 +5°C° 0 mm 2 mps 651 mmHg 77%
23:00 +6°C° 0 mm 1 mps 651 mmHg 77%

28 November, Saturday

Time Temperature Precipitation Wind Pressure Humidity
00:00 +6°C° 0 mm 1 mps 651 mmHg 77%
01:00 +7°C° 0.1 mm 1 mps 651 mmHg 78%
02:00 +6°C° 0.1 mm 2 mps 651 mmHg 79%
03:00 +6°C° 0.1 mm 2 mps 651 mmHg 81%
04:00 +7°C° 0.4 mm 1 mps 651 mmHg 84%
05:00 +7°C° 0.4 mm 1 mps 651 mmHg 87%
06:00 +7°C° 0.4 mm 1 mps 651 mmHg 90%
07:00 +7°C° 0.6 mm 1 mps 651 mmHg 90%
08:00 +6°C° 0.6 mm 2 mps 651 mmHg 90%
09:00 +6°C° 0.6 mm 2 mps 651 mmHg 91%
10:00 +5°C° 0.5 mm 3 mps 650 mmHg 91%
11:00 +7°C° 0.5 mm 3 mps 650 mmHg 90%
12:00 +7°C° 0.5 mm 3 mps 649 mmHg 90%
13:00 +6°C° 0.7 mm 4 mps 649 mmHg 90%
14:00 +6°C° 0.7 mm 4 mps 649 mmHg 89%
15:00 +6°C° 0.7 mm 4 mps 649 mmHg 88%
16:00 +6°C° 1.2 mm 4 mps 649 mmHg 89%
17:00 +7°C° 1.2 mm 3 mps 649 mmHg 90%
18:00 +7°C° 1.2 mm 2 mps 649 mmHg 92%
19:00 +7°C° 1.1 mm 3 mps 649 mmHg 91%
20:00 +6°C° 1.1 mm 4 mps 649 mmHg 90%
21:00 +6°C° 1.1 mm 4 mps 649 mmHg 89%
22:00 +6°C° 0.1 mm 4 mps 649 mmHg 89%
23:00 +6°C° 0.1 mm 4 mps 648 mmHg 88%

29 November, Sunday

Time Temperature Precipitation Wind Pressure Humidity
00:00 +6°C° 0.1 mm 4 mps 648 mmHg 88%
01:00 +6°C° 0.6 mm 4 mps 648 mmHg 88%
02:00 +6°C° 0.6 mm 4 mps 648 mmHg 89%
03:00 +6°C° 0.6 mm 4 mps 648 mmHg 89%
04:00 +7°C° 0.2 mm 3 mps 648 mmHg 90%
05:00 +7°C° 0.2 mm 3 mps 648 mmHg 90%
06:00 +7°C° 0.2 mm 2 mps 648 mmHg 91%
07:00 +7°C° 0.1 mm 2 mps 648 mmHg 91%
08:00 +7°C° 0.1 mm 2 mps 648 mmHg 91%
09:00 +7°C° 0.1 mm 2 mps 648 mmHg 92%
10:00 +7°C° 1.1 mm 2 mps 648 mmHg 92%
11:00 +7°C° 1.1 mm 2 mps 647 mmHg 93%
12:00 +7°C° 1.1 mm 2 mps 647 mmHg 94%
13:00 +7°C° 0.9 mm 2 mps 647 mmHg 93%
14:00 +8°C° 0.9 mm 1 mps 647 mmHg 93%
15:00 +8°C° 0.9 mm 1 mps 647 mmHg 93%
16:00 +8°C° 0.3 mm 1 mps 647 mmHg 91%
17:00 +7°C° 0.3 mm 2 mps 647 mmHg 89%
18:00 +7°C° 0.3 mm 2 mps 647 mmHg 88%
19:00 +7°C° 0.3 mm 2 mps 647 mmHg 86%
20:00 +6°C° 0.3 mm 2 mps 647 mmHg 85%
21:00 +6°C° 0.3 mm 2 mps 647 mmHg 84%
22:00 +6°C° 0 mm 2 mps 647 mmHg 83%
23:00 +5°C° 0 mm 3 mps 647 mmHg 81%
Show more